User: anonymous   Login
Location: D�derode
(51.8092°N, 10.1065°E)
Time: 07:50:52
(UTC+00:00)
Language:

Cosmos 1500 - Orbit

View from above orbital plane
View from above orbital plane
View from above satellite
View from above satellite

Ground track
Ground track

The orbit data is extracted from the following two-line orbital elements,

1 14372U 83099A   21057.05259385  .00000918  00000-0  41987-4 0  9999
2 14372  82.5124  87.9236 0016473  70.7237 319.0790 15.19126736 42289
Epoch (UTC): 26 February 2021 01:15:44
Eccentricity: 0.0016473
inclination: 82.5124°
perigee height: 497 km
apogee height: 520 km
right ascension of ascending node: 87.9236°
argument of perigee: 70.7237°
revolutions per day: 15.19126736
mean anomaly at epoch: 319.0790°
orbit number at epoch: 4228

The dashed part of the orbit path shows where the satellite is in the earth's shadow,  

DLR